Weather History for Jacksonville Craig, FL

Change the Weather History Date:

Friday, March 28, 2014

  Actual Average Record
Temperature  
Mean Temperature 68 °F -  
Max Temperature 81 °F 72 °F 87 °F (2009)
Min Temperature 57 °F 53 °F 39 °F (2013)
Cooling Degree Days 3    
Growing Degree Days 18 (Base 50)    
Moisture  
Dew Point 60 °F    
Average Humidity 76    
Maximum Humidity 87    
Minimum Humidity 50    
Precipitation  
Precipitation 0.07 in - - ()
Sea Level Pressure  
Sea Level Pressure 30.13 in    
Wind  
Wind Speed 5 mph (SSE)    
Max Wind Speed 17 mph    
Max Gust Speed 28 mph    
Visibility 10 miles    
Events Rain    
Averages and records for this station are not official NWS values.
T = Trace of Precipitation, MM = Missing Value Source: NWS Daily Summary

Daily Weather History Graph

Daily Weather History Graph

Search for Another Location

Airport:

Trip Planner

Search our weather history database for the weather conditions in past years. The results will help you decide how hot, cold, wet, or windy it might be!

Date:

Astronomy

Mar. 28, 2014 Rise Set
Actual Time 7:20 AM EDT 7:42 PM EDT
Civil Twilight 6:56 AM EDT 8:06 PM EDT
Nautical Twilight 6:27 AM EDT 8:34 PM EDT
Astronomical Twilight 5:59 AM EDT 9:03 PM EDT
Moon 5:40 AM EDT (3/28) 5:44 PM EDT (3/28)
Length of Visible Light 13h 10m
Length of Day
12h 22m
Waning Crescent, 6% of the Moon is Illuminated
Mar 28
Waning Crescent
Mar 30
New
Apr 7
First Quarter
Apr 15
Full
Apr 22
Last Quarter

Hourly Weather History & Observations

Time (EDT) Temp. Dew Point Humidity Pressure Visibility Wind Dir Wind Speed Gust Speed Precip Events Conditions
12:53 AM 57.9 °F 53.1 °F 84% 30.25 in 10.0 mi Calm Calm - N/A   Scattered Clouds
1:53 AM 57.0 °F 53.1 °F 87% 30.23 in 10.0 mi Calm Calm - N/A   Clear
2:53 AM 57.0 °F 53.1 °F 87% 30.21 in 10.0 mi Calm Calm - N/A   Partly Cloudy
3:53 AM 57.9 °F 54.0 °F 87% 30.19 in 10.0 mi Calm Calm - N/A   Overcast
4:53 AM 60.1 °F 55.9 °F 86% 30.17 in 10.0 mi Calm Calm - N/A   Overcast
5:53 AM 60.1 °F 55.9 °F 86% 30.15 in 10.0 mi ESE 4.6 mph - N/A   Clear
6:53 AM 60.1 °F 55.9 °F 86% 30.15 in 10.0 mi SE 5.8 mph - N/A   Clear
7:53 AM 64.0 °F 59.0 °F 84% 30.17 in 10.0 mi SSE 5.8 mph - N/A   Clear
8:53 AM 66.9 °F 62.1 °F 84% 30.17 in 10.0 mi SSE 8.1 mph - N/A   Clear
9:53 AM 70.0 °F 62.1 °F 76% 30.17 in 10.0 mi SSE 12.7 mph - N/A   Clear
10:53 AM 75.0 °F 61.0 °F 62% 30.18 in 10.0 mi SSE 16.1 mph 23.0 mph N/A   Clear
11:53 AM 77.0 °F 60.1 °F 56% 30.16 in 10.0 mi SSE 12.7 mph - N/A   Mostly Cloudy
12:53 PM 79.0 °F 59.0 °F 50% 30.14 in 10.0 mi SSE 17.3 mph 27.6 mph N/A   Partly Cloudy
1:53 PM 79.0 °F 61.0 °F 54% 30.11 in 10.0 mi SE 11.5 mph - N/A   Scattered Clouds
2:53 PM 77.0 °F 62.1 °F 60% 30.09 in 10.0 mi SE 15.0 mph - N/A   Overcast
3:53 PM 73.0 °F 63.0 °F 71% 30.07 in 10.0 mi SSE 12.7 mph - 0.00 in Rain Light Rain
4:53 PM 73.0 °F 62.1 °F 68% 30.06 in 10.0 mi SSE 10.4 mph - 0.00 in Rain Light Rain
5:53 PM 73.0 °F 62.1 °F 68% 30.06 in 10.0 mi South 10.4 mph - 0.00 in   Mostly Cloudy
6:53 PM 73.0 °F 62.1 °F 68% 30.05 in 10.0 mi SE 16.1 mph 21.9 mph N/A   Overcast
7:53 PM 72.0 °F 63.0 °F 73% 30.07 in 10.0 mi SSE 11.5 mph - 0.00 in Rain Light Rain
8:53 PM 70.0 °F 64.0 °F 81% 30.09 in 9.0 mi South 4.6 mph - 0.02 in Rain Light Rain
9:53 PM 70.0 °F 64.9 °F 84% 30.08 in 10.0 mi SSE 5.8 mph - 0.02 in Rain Light Rain
10:53 PM 69.1 °F 64.9 °F 87% 30.07 in 9.0 mi SSE 5.8 mph - 0.02 in Rain Light Rain
11:53 PM 69.1 °F 64.9 °F 87% 30.06 in 7.0 mi South 3.5 mph - 0.01 in Rain Light Rain